When you browse on this site, cookies collect data to enhance your experience and personalize the content and advertising you see.
Visit our Privacy Policy to learn more. By continuing to use the site, you agree to this use of cookies and data.
  • In Hungary
  • List of Countries
  • For 7 days
  • Water Temperature
  • Weather Map
  • News
  • Weather Widgets
  • user-avatar
    Login

    Hourly Weather Udobnyy

    Today, 27 February, Thursday

    Time Temperature Precipitation Wind Pressure Humidity
    00:00 +7°C° 0 mm 2 mps 735 mmHg 52%
    01:00 +7°C° 0 mm 2 mps 734 mmHg 50%
    02:00 +7°C° 0 mm 2 mps 734 mmHg 49%
    03:00 +7°C° 0 mm 2 mps 734 mmHg 48%
    04:00 +7°C° 0 mm 2 mps 734 mmHg 47%
    05:00 +7°C° 0 mm 2 mps 734 mmHg 46%
    06:00 +7°C° 0 mm 3 mps 734 mmHg 45%
    07:00 +8°C° 0 mm 2 mps 734 mmHg 45%
    08:00 +9°C° 0 mm 2 mps 734 mmHg 44%
    09:00 +10°C° 0 mm 2 mps 734 mmHg 44%
    10:00 +13°C° 0 mm 1 mps 734 mmHg 42%
    11:00 +15°C° 0 mm 1 mps 734 mmHg 40%
    12:00 +18°C° 0 mm 1 mps 735 mmHg 37%
    13:00 +19°C° 0 mm 1 mps 735 mmHg 37%
    14:00 +19°C° 0 mm 1 mps 734 mmHg 37%
    15:00 +19°C° 0 mm 1 mps 734 mmHg 38%
    16:00 +18°C° 0 mm 1 mps 734 mmHg 43%
    17:00 +15°C° 0 mm 1 mps 734 mmHg 48%
    18:00 +13°C° 0 mm 1 mps 734 mmHg 53%
    19:00 +12°C° 0 mm 1 mps 734 mmHg 54%
    20:00 +12°C° 0 mm 1 mps 734 mmHg 55%
    21:00 +11°C° 0 mm 1 mps 734 mmHg 56%
    22:00 +10°C° 0 mm 2 mps 733 mmHg 56%
    23:00 +9°C° 0 mm 2 mps 733 mmHg 56%

    Tomorrow, 28 February, Friday

    Time Temperature Precipitation Wind Pressure Humidity
    00:00 +9°C° 0 mm 2 mps 733 mmHg 56%
    01:00 +9°C° 0 mm 2 mps 732 mmHg 55%
    02:00 +9°C° 0 mm 2 mps 732 mmHg 54%
    03:00 +9°C° 0 mm 2 mps 731 mmHg 53%
    04:00 +9°C° 0.1 mm 3 mps 731 mmHg 56%
    05:00 +9°C° 0.1 mm 3 mps 731 mmHg 59%
    06:00 +9°C° 0.1 mm 3 mps 731 mmHg 62%
    07:00 +8°C° 0.3 mm 4 mps 732 mmHg 65%
    08:00 +10°C° 0.3 mm 4 mps 732 mmHg 68%
    09:00 +10°C° 0.3 mm 4 mps 733 mmHg 71%
    10:00 +8°C° 1 mm 5 mps 733 mmHg 75%
    11:00 +7°C° 1 mm 6 mps 733 mmHg 78%
    12:00 +6°C° 1 mm 8 mps 734 mmHg 82%
    13:00 +6°C° 0.7 mm 8 mps 734 mmHg 76%
    14:00 +6°C° 0.7 mm 8 mps 735 mmHg 70%
    15:00 +7°C° 0.7 mm 8 mps 736 mmHg 64%
    16:00 +6°C° 0 mm 7 mps 736 mmHg 67%
    17:00 +5°C° 0 mm 6 mps 737 mmHg 70%
    18:00 +5°C° 0 mm 5 mps 737 mmHg 72%
    19:00 +5°C° 0 mm 4 mps 738 mmHg 76%
    20:00 +4°C° 0 mm 3 mps 738 mmHg 80%
    21:00 +4°C° 0 mm 2 mps 738 mmHg 84%
    22:00 +4°C° 0 mm 2 mps 738 mmHg 85%
    23:00 +4°C° 0 mm 1 mps 738 mmHg 86%

    Day after tomorrow, 29 February, Saturday

    Time Temperature Precipitation Wind Pressure Humidity
    00:00 +4°C° 0 mm 1 mps 738 mmHg 87%
    01:00 +4°C° 0 mm 1 mps 738 mmHg 87%
    02:00 +4°C° 0 mm 1 mps 737 mmHg 87%
    03:00 +3°C° 0 mm 2 mps 737 mmHg 87%
    04:00 +3°C° 0 mm 2 mps 737 mmHg 85%
    05:00 +3°C° 0 mm 2 mps 736 mmHg 84%
    06:00 +2°C° 0 mm 3 mps 736 mmHg 83%
    07:00 +3°C° 0 mm 3 mps 736 mmHg 80%
    08:00 +3°C° 0 mm 4 mps 735 mmHg 76%
    09:00 +4°C° 0 mm 4 mps 735 mmHg 73%
    10:00 +5°C° 0 mm 4 mps 735 mmHg 70%
    11:00 +7°C° 0 mm 3 mps 734 mmHg 67%
    12:00 +8°C° 0 mm 3 mps 734 mmHg 64%
    13:00 +8°C° 0.2 mm 3 mps 734 mmHg 66%
    14:00 +8°C° 0.2 mm 3 mps 734 mmHg 68%
    15:00 +8°C° 0.2 mm 3 mps 733 mmHg 69%
    16:00 +7°C° 0.2 mm 3 mps 733 mmHg 72%
    17:00 +7°C° 0.2 mm 3 mps 734 mmHg 74%
    18:00 +5°C° 0.2 mm 3 mps 734 mmHg 76%
    19:00 +5°C° 0.1 mm 3 mps 734 mmHg 76%
    20:00 +5°C° 0.1 mm 3 mps 734 mmHg 75%
    21:00 +4°C° 0.1 mm 3 mps 735 mmHg 74%
    22:00 +4°C° 0.1 mm 3 mps 735 mmHg 75%
    23:00 +4°C° 0.1 mm 3 mps 735 mmHg 76%

    1 March, Sunday

    Time Temperature Precipitation Wind Pressure Humidity
    00:00 +3°C° 0.1 mm 3 mps 735 mmHg 77%
    01:00 +4°C° 0.6 mm 2 mps 736 mmHg 83%
    02:00 +3°C° 0.6 mm 2 mps 736 mmHg 89%
    03:00 +3°C° 0.6 mm 2 mps 737 mmHg 95%
    04:00 +2°C° 0.4 mm 2 mps 737 mmHg 96%
    05:00 +3°C° 0.4 mm 1 mps 738 mmHg 96%
    06:00 +3°C° 0.4 mm 1 mps 738 mmHg 96%
    07:00 +3°C° 0.2 mm 1 mps 739 mmHg 96%
    08:00 +3°C° 0.2 mm 1 mps 739 mmHg 96%
    09:00 +4°C° 0.2 mm 1 mps 740 mmHg 95%
    10:00 +3°C° 0 mm 2 mps 740 mmHg 91%
    11:00 +4°C° 0 mm 2 mps 740 mmHg 87%
    12:00 +4°C° 0 mm 2 mps 740 mmHg 83%
    13:00 +5°C° 0 mm 2 mps 741 mmHg 81%
    14:00 +5°C° 0 mm 2 mps 741 mmHg 79%
    15:00 +5°C° 0 mm 2 mps 741 mmHg 77%
    16:00 +5°C° 0 mm 2 mps 741 mmHg 81%
    17:00 +4°C° 0 mm 2 mps 741 mmHg 85%
    18:00 +5°C° 0 mm 1 mps 742 mmHg 89%
    19:00 +5°C° 0 mm 1 mps 742 mmHg 90%
    20:00 +5°C° 0 mm 1 mps 742 mmHg 91%
    21:00 +5°C° 0 mm 1 mps 743 mmHg 91%
    22:00 +4°C° 0 mm 1 mps 743 mmHg 92%
    23:00 +4°C° 0 mm 1 mps 743 mmHg 92%

    2 March, Monday

    Time Temperature Precipitation Wind Pressure Humidity
    00:00 +4°C° 0 mm 1 mps 743 mmHg 93%
    01:00 +3°C° 0 mm 1 mps 743 mmHg 92%
    02:00 +3°C° 0 mm 1 mps 743 mmHg 91%
    03:00 +3°C° 0 mm 1 mps 743 mmHg 91%
    04:00 +2°C° 0 mm 1 mps 743 mmHg 90%
    05:00 +2°C° 0 mm 1 mps 743 mmHg 89%
    06:00 +2°C° 0 mm 1 mps 743 mmHg 88%
    07:00 +3°C° 0 mm 1 mps 743 mmHg 82%
    08:00 +4°C° 0 mm 1 mps 743 mmHg 76%
    09:00 +5°C° 0 mm 1 mps 743 mmHg 70%
    10:00 +7°C° 0 mm 1 mps 743 mmHg 65%
    11:00 +8°C° 0 mm 1 mps 743 mmHg 59%
    12:00 +10°C° 0 mm 1 mps 743 mmHg 54%
    13:00 +10°C° 0 mm 1 mps 742 mmHg 52%
    14:00 +10°C° 0 mm 1 mps 742 mmHg 49%
    15:00 +10°C° 0 mm 1 mps 741 mmHg 47%
    16:00 +8°C° 0 mm 2 mps 741 mmHg 52%
    17:00 +7°C° 0 mm 2 mps 741 mmHg 58%
    18:00 +6°C° 0 mm 2 mps 740 mmHg 63%
    19:00 +6°C° 0 mm 2 mps 740 mmHg 66%
    20:00 +5°C° 0 mm 2 mps 740 mmHg 70%
    21:00 +4°C° 0 mm 2 mps 740 mmHg 73%
    22:00 +4°C° 0 mm 2 mps 740 mmHg 73%
    23:00 +4°C° 0 mm 2 mps 740 mmHg 73%

    3 March, Tuesday

    Time Temperature Precipitation Wind Pressure Humidity
    00:00 +5°C° 0 mm 1 mps 740 mmHg 73%
    01:00 +5°C° 0 mm 1 mps 740 mmHg 72%
    02:00 +5°C° 0 mm 1 mps 740 mmHg 71%
    03:00 +5°C° 0 mm 1 mps 740 mmHg 70%
    04:00 +5°C° 0 mm 1 mps 740 mmHg 68%
    05:00 +5°C° 0 mm 1 mps 740 mmHg 66%
    06:00 +4°C° 0 mm 1 mps 740 mmHg 65%
    07:00 +6°C° 0 mm 1 mps 740 mmHg 61%
    08:00 +7°C° 0 mm 1 mps 740 mmHg 57%
    09:00 +8°C° 0 mm 2 mps 740 mmHg 54%
    10:00 +10°C° 0 mm 2 mps 740 mmHg 48%
    11:00 +14°C° 0 mm 2 mps 740 mmHg 41%
    12:00 +16°C° 0 mm 2 mps 740 mmHg 35%
    13:00 +17°C° 0 mm 2 mps 740 mmHg 36%
    14:00 +18°C° 0 mm 3 mps 740 mmHg 36%
    15:00 +18°C° 0 mm 4 mps 740 mmHg 37%
    16:00 +17°C° 0 mm 3 mps 740 mmHg 43%
    17:00 +15°C° 0 mm 2 mps 740 mmHg 50%
    18:00 +13°C° 0 mm 1 mps 740 mmHg 56%
    19:00 +12°C° 0 mm 1 mps 740 mmHg 59%
    20:00 +11°C° 0 mm 1 mps 740 mmHg 61%
    21:00 +10°C° 0 mm 1 mps 740 mmHg 63%
    22:00 +9°C° 0 mm 2 mps 740 mmHg 64%
    23:00 +9°C° 0 mm 2 mps 740 mmHg 65%
    Show more